Location: K?za
(16.3887°N, 80.5412°E)
Time: 07:26:00
(UTC+00:00)

Daily predictions for brighter satellites

Satellite Brightness Start Highest point End
(mag) Time Altitude Azimuth Time Altitude Azimuth Time Altitude Azimuth
VEP-3 3.3 13:20:58 10° WNW 13:26:23 50° N 13:33:52 10° E
Fermi 4.1 13:22:35 10° WNW 13:26:40 60° NNE 13:30:43 10° E
Cosmos 1452 Rocket 4.4 13:24:37 10° NNW 13:29:43 55° WSW 13:34:50 10° S
MOS 1 Rocket 3.8 13:25:26 10° NNE 13:30:35 46° E 13:35:29 10° S
Meteor 2-3 Rocket 3.9 13:26:01 10° S 13:31:39 59° E 13:37:19 10° NNE
Cosmos 2369 Rocket 2.7 13:27:55 10° NNW 13:33:31 65° WSW 13:39:07 10° S
Cosmos 2263 4.3 13:29:27 10° NNW 13:35:14 86° ENE 13:40:59 10° SSE
Nadezhda 3 Rocket 4.0 13:31:16 10° N 13:37:22 64° E 13:43:26 10° SSE
CZ-4 R/B 1.8 13:37:38 10° S 13:41:27 63° W 13:45:17 10° NNW
GPS 2-17 Rocket1 3.5 13:37:18 10° W 13:41:43 55° N 13:46:01 10° ENE
Cosmos 1331 Rocket 4.1 13:37:59 10° N 13:43:06 56° ENE 13:48:09 10° SSE
HJ-1C 3.8 13:42:00 10° SSE 13:45:11 42° ENE 13:48:22 10° N
H-2A R/B 2.5 13:42:38 10° SE 13:47:35 41° ENE 13:52:24 10° N
CZ-2C R/B 3.1 13:42:59 10° NE 13:47:45 36° E 13:52:34 10° SSE
Abrixas rocket 2.3 13:45:05 10° NW 13:47:54 59° SW 13:50:27 12° SSE
Meteor 2-12 Rocket 4.5 13:42:44 10° S 13:48:48 63° E 13:54:52 10° NNE
CSL-04 Debris 4.2 13:44:09 10° SSE 13:49:37 75° ENE 13:55:04 10° N
Cosmos 1656 Rocket 3.7 13:49:38 10° NNW 13:55:11 89° WSW 14:00:48 10° SSE
Skynet4D Del rocket 4.4 13:52:25 10° W 13:57:34 47° NNW 14:02:59 10° ENE
Yuri Rocket 3.1 13:56:40 10° SW 14:00:59 50° SSE 14:03:41 19° E
Cosmos 1833 Rocket 3.1 13:57:26 10° S 14:02:34 38° ESE 14:07:41 10° NE
Cosmos 1328 Rocket 3.8 13:58:40 10° N 14:02:55 46° E 14:06:30 14° SSE
Cosmos 1959 Rocket 4.4 13:57:48 10° S 14:04:02 74° E 14:10:20 10° N
ARIANE 5 R/B 4.2 13:59:00 10° WSW 14:05:40 17° SSW 14:08:28 10° SSE
USA 186 3.5 14:07:26 13° NE 14:07:26 13° NE 14:07:53 10° NNE
Delta 202 3.9 14:03:22 10° W 14:10:17 77° N 14:14:11 20° E
SL-08 RB Rocket 4.4 14:09:25 24° ESE 14:11:22 35° ENE 14:15:33 10° N
DMSP B5D2-2 4.0 14:06:22 10° NNE 14:11:33 65° ESE 14:16:45 10° S
Cosmos 1867 4.3 14:08:22 10° SSE 14:12:59 29° ESE 14:17:36 10° NE
Cosmos 2251 Rocket 4.4 14:08:16 10° SSW 14:13:20 51° WNW 14:18:26 10° N
Cosmos 1933 3.2 14:11:30 10° N 14:15:34 78° E 14:18:48 16° S
Cosmos 1782 3.9 14:15:02 10° NNE 14:17:56 26° ENE 14:17:56 26° ENE
Cosmos 405 2.9 14:16:43 10° N 14:20:07 59° E 14:20:49 46° SE
H-2A ROCKET BODY 3.1 14:20:53 10° W 14:24:37 47° SSW 14:30:55 23° SE
Cosmos 1821 Rocket 4.3 14:27:05 30° SE 14:29:16 40° E 14:34:54 10° NNE
Cosmos 1606 4.4 14:28:11 10° NNW 14:31:37 33° W 14:35:02 10° SSW
DELTA-4 R/B 4.2 14:27:21 10° W 14:31:54 73° S 14:42:06 25° E
ATLAS V CENTAUR R/B 4.4 14:29:34 10° W 14:33:30 71° S 14:40:59 28° ESE
Cosmos 614 Rocket 3.8 14:28:40 10° SSW 14:33:45 89° ESE 14:38:55 10° NNE
Cosmos 1515 Rocket 3.4 14:32:30 10° N 14:36:57 71° E 14:37:48 54° SE
IRS-1A Rocket 4.1 14:34:25 32° SSE 14:37:05 71° ENE 14:42:42 10° N
Meteor 1-26 Rocket 4.0 14:33:43 10° N 14:39:10 89° W 14:42:16 27° S
COSMOS 2406 4.0 14:33:41 10° SSW 14:39:16 53° WNW 14:44:52 10° N
IRIDIUM 103 4.4 14:39:26 49° ESE 14:40:01 52° E 14:45:02 10° NNE
Ariane H10 4.3 14:39:03 10° SSW 14:41:58 24° SSE 14:41:58 24° SSE
Cosmos 1151 Rocket 4.3 14:40:28 10° NNW 14:44:26 38° W 14:47:58 13° SSW
Cosmos 1441 Rocket 4.4 14:46:34 33° NNE 14:46:34 33° NNE 14:48:46 10° N
ISS -2.7 14:44:05 10° NW 14:46:50 43° W 14:46:50 43° W
Cosmos 1302 Rocket 4.5 14:44:20 10° NNW 14:49:25 57° WSW 14:52:01 28° S
Cosmos 2082 Rocket 2.0 14:53:20 45° S 14:55:04 71° ESE 15:00:43 10° NNE
IRIDIUM 106 4.2 14:57:45 73° SSE 14:58:16 86° E 15:03:29 10° N
Cosmos 2239 Rocket 4.3 14:58:04 62° SE 14:58:39 66° E 15:04:42 10° NNE
Sich 1 4.2 15:06:59 36° N 15:06:59 36° N 15:09:37 10° N
USA 238 DEB 3.4 14:59:56 10° SSW 15:06:27 77° ESE 15:13:04 10° NNE
USA 238 3.4 15:00:04 10° SSW 15:06:34 76° ESE 15:13:10 10° NNE
Ariane Rocket 3.9 15:07:12 32° SSW 15:08:56 44° W 15:13:45 10° NNW
Meteor 2-6 Rocket 4.5 15:03:41 10° N 15:08:12 55° NNE 15:08:12 55° NNE
Centaur D-1AR AC-40 3.3 14:30:32 10° WSW 15:09:36 79° NNW 15:11:54 46° ENE
SJ-6B 4.1 15:10:59 40° W 15:10:59 40° W 15:14:28 10° NNW
Cosmos 1190 Rocket 4.3 15:11:42 52° SW 15:12:46 65° WNW 15:17:59 10° N
Cosmos 407 Rocket 4.5 15:10:49 10° SSW 15:15:54 45° WNW 15:20:59 10° N
BREEZE-M DEB (TANK) 4.4 15:36:05 77° WSW 15:36:36 86° NW 15:55:22 10° NE
ATLAS 5 CENTAUR R/B 3.9 15:49:18 10° NNW 15:52:39 32° N 15:52:39 32° N
Atlas Centaur 2 4.4 20:52:07 26° ENE 20:52:07 26° ENE 20:55:21 10° ENE
CZ-3A R/B 3.9 21:24:08 57° NE 21:24:08 57° NE 21:41:10 10° ENE
ATLAS 3B CENTAUR R/B 4.2 21:40:09 25° NW 21:46:07 39° N 21:52:00 10° ENE
Yuri Rocket 4.4 21:51:31 76° NNW 21:52:08 81° NNE 22:02:00 10° ESE
Cosmos 1553 Rocket 4.1 21:57:30 67° NE 21:57:30 67° NE 22:02:52 10° N
CZ-2C R/B 3.8 21:53:11 10° NE 21:57:01 32° E 21:57:01 32° E
Hubble Space Telescope 3.0 22:02:12 24° ENE 22:02:12 24° ENE 22:03:53 10° ENE
Meteor 2-8 Rocket 4.5 22:02:40 76° E 22:02:40 76° E 22:08:40 10° N
Cosmos 1125 Rocket 4.4 22:06:55 42° N 22:06:55 42° N 22:10:22 10° N
IDEFIX/ARIANE 42P 4.4 22:00:54 10° N 22:02:46 22° NNW 22:02:46 22° NNW
ATLAS 2A CENTAUR R/B 4.0 22:07:14 13° ENE 22:07:14 13° ENE 22:08:06 10° ENE
Meteor 1-21 Rocket 4.3 22:01:49 10° N 22:07:01 69° ENE 22:07:01 69° ENE
MSX 4.3 22:12:19 10° N 22:16:43 46° NW 22:16:43 46° NW
Meteor 2-21 Rocket 4.3 22:14:24 10° N 22:20:29 89° W 22:22:02 53° S
Meteor 2-16 Rocket 4.5 22:16:24 10° N 22:22:32 77° E 22:26:53 20° S
Aureole 3 4.0 22:23:29 61° N 22:23:29 61° N 22:28:01 10° N
S3M 3.9 22:23:03 53° S 22:24:43 88° W 22:31:07 10° N
Cosmos 1244 Rocket 4.3 22:21:04 10° N 22:27:23 82° W 22:30:05 37° S
Chandra Rocket (1) 4.1 22:24:12 35° SSW 22:28:30 50° SSE 22:33:32 10° E
Cosmos 1726 Rocket 3.9 22:37:41 53° NW 22:37:41 53° NW 22:41:17 10° N
Atlas Centaur 2 3.6 22:34:42 29° WNW 22:37:44 42° NNW 22:45:27 10° NE
GMS 1 Rocket 4.4 22:39:04 79° W 22:39:19 87° NNW 22:44:40 10° ENE
Cosmos 1356 Rocket 3.9 22:41:35 48° NW 22:41:35 48° NW 22:44:52 10° N
ATLAS CENTAUR R/B 3.8 22:44:04 11° NNW 22:44:04 11° NNW 22:44:29 10° NNW
SL-08 R/B 4.4 22:36:40 10° N 22:42:55 89° W 22:49:14 10° S
SeaSat 1 4.0 22:39:24 10° NNW 22:42:05 21° NW 22:42:05 21° NW
Landsat 5 3.3 22:44:15 63° NNW 22:44:15 63° NNW 22:47:34 10° NNW
SL-4 R/B 4.0 22:43:06 10° N 22:45:54 23° NE 22:48:46 10° ESE
NOSS 2-2 (D) 3.8 22:48:05 42° NNW 22:48:05 42° NNW 22:50:54 10° N
Cosmos 1844 Rocket 2.9 22:50:07 43° WSW 22:51:13 50° WNW 22:56:36 10° N
PAYLOAD A 4.4 22:46:58 10° N 22:51:51 42° WNW 22:52:21 41° W
Cosmos 1300 3.1 23:01:02 41° WNW 23:01:02 41° WNW 23:04:22 10° NNW
Cosmos 2315 Rocket 4.0 22:54:43 10° S 23:00:59 88° E 23:07:19 10° N
SJ-6F 4.5 22:59:36 10° N 23:03:43 59° WNW 23:05:24 33° SW
Cosmos 1603 3.6 22:59:12 10° NNW 23:04:49 63° WSW 23:10:23 10° S
Cosmos 1048 Rocket 4.4 23:00:08 10° N 23:05:16 65° ENE 23:10:26 10° SSE
Ariane H10+ 3.9 22:58:28 24° WSW 23:06:33 43° S 23:12:10 10° ESE
Cosmos 2058 Rocket 3.4 23:05:29 34° SW 23:06:50 45° W 23:11:07 10° NNW
Meteosat 1 Rocket2 3.6 23:04:49 29° W 23:07:17 54° NNW 23:11:19 10° NE
Cosmos 1328 4.1 23:03:35 10° NNW 23:07:21 41° W 23:08:07 36° WSW
deb Chang Zheng 4 4.2 23:04:59 10° N 23:08:58 36° WNW 23:09:58 31° WSW
CZ-4B R/B 4.0 23:07:37 10° NNE 23:11:55 49° E 23:16:05 10° S
GPS 2-12 Rocket1 4.2 23:10:17 22° SSW 23:12:31 34° SSE 23:16:52 10° E
Cosmos 1703 4.4 23:09:12 10° NNW 23:11:54 26° WNW 23:11:54 26° WNW
H-2A R/B 3.4 23:23:53 19° W 23:23:53 19° W 23:26:11 10° NW
CZ-4B R/B 1.2 23:20:31 10° S 23:23:54 84° W 23:27:11 10° NNW
Cosmos 468 4.5 23:23:25 10° NNW 23:28:37 61° WSW 23:33:49 10° S
Cosmos 1943 3.5 23:24:41 10° NW 23:29:56 42° WSW 23:35:12 10° S
TSX-5 3.9 23:26:29 10° S 23:30:11 60° ESE 23:33:23 10° NNE
Meteor 1-31 Rocket 3.1 23:27:45 10° N 23:31:23 44° WNW 23:35:00 10° SSW
ATLAS 2A CENTAUR R/B 0.6 23:29:06 12° WNW 23:31:47 82° NNE 23:33:44 10° ESE
ADEOS Rocket 3.7 23:27:42 10° SSE 23:34:51 78° ENE 23:42:33 10° N
CZ-2C R/B 4.0 23:32:55 10° NW 23:35:14 14° WNW 23:36:24 13° W
Cosmos 1484 Rocket 3.4 23:31:58 10° NNW 23:35:21 34° WNW 23:38:45 10° SW
ALOS 2.5 23:30:55 10° N 23:35:24 49° WNW 23:39:54 10° SSW
ERS-2 3.9 23:36:32 14° W 23:36:32 14° W 23:37:51 10° WNW
GPS 2-18 Rocket1 3.5 23:37:07 10° WNW 23:40:43 56° N 23:44:18 10° E
Hubble Space Telescope 2.6 23:37:53 10° WNW 23:41:13 23° NNW 23:44:32 10° NE
Cosmos 1400 Rocket 3.0 23:37:53 10° S 23:41:51 72° E 23:45:45 10° N
Cosmos 1689 Rocket 2.5 23:40:13 10° SSE 23:43:06 63° ENE 23:45:58 10° N
GPS 2-15 Rocket1 3.5 23:39:38 11° W 23:44:11 52° SSW 23:49:00 10° ESE
NOSS 3-4 (A) 4.3 23:38:39 10° S 23:44:22 49° ESE 23:50:02 10° NE
NOSS 3-4 (C) 4.3 23:38:48 10° S 23:44:30 48° ESE 23:50:09 10° NE
PSLV R/B 4.2 23:46:32 10° NNE 23:50:20 63° E 23:54:01 10° S
Lacrosse 5 rocket 1.7 23:47:30 10° SSW 23:51:55 79° ESE 23:56:28 10° NE
Meteor 2-10 Rocket 3.5 23:48:10 10° SSW 23:53:06 60° W 23:58:11 10° N
